[Date Prev][Date Next][Thread Prev][Thread Next] - [Date Index][Thread Index][Author Index]

2 Line ISS Keps 4/23 ~ these will update yesterday keps by 30 sec's



ISS
1 25544U 98067A   01113.99731481  .00039523  00000-0  47042-3 0  9013
2 25544  51.5744   1.7412 0013340 323.8641 189.8273 15.60609196138611

----
Via the sarex mailing list at AMSAT.ORG courtesy of AMSAT-NA.
To unsubscribe, send "unsubscribe sarex" to Majordomo@amsat.org



AMSAT Top AMSAT Home